[ ตารางข้อมูล ] [ Min-Max ] [ วันนี้4 ] [ วันนี้2 ] [ เทียบ3วัน A ] [ เทียบ4วัน B ]   

วันนี้2   [ ◀ ช่วงเก่ากว่า ] [ ช่วงที่ 305 ] [ ช่วงใหม่กว่า ▶ ] [ ล่าสุด ]    [ 3 ชั่วโมง ] [ 6 ชั่วโมง ] [ 12 ชั่วโมง ] [ 24 ชั่วโมง ]   วันนี้2

อุณภูมิตู้ Knockdown4529  ราย 3 ชั่วโมง  ที่วัดได้ ในช่วงวันเวลา 31/03/2026 (22:46) ถึง 01/04/2026 (01:46) 
ความชื้นในตู้ Knockdown4529  ราย 3 ชั่วโมง  ที่วัดได้ ในช่วงวันเวลา 31/03/2026 (22:46) ถึง 01/04/2026 (01:46) 

 
DS18B20SHTC3 
IDDate d/m/Y & Timedata1
สูง
data2
ต่ำ
data3
นอก
temp
pcb
hum
pcb
Time
 7669  01/04/2026 01:45:19  29.2  29.1  27.5  29.0  72.9  01:45 
 7668  01/04/2026 01:40:37  29.2  29.2  27.4  29.0  73.0  01:40 
 7667  01/04/2026 01:35:55  29.2  29.2  27.6  29.1  73.0  01:35 
 7666  01/04/2026 01:31:14  29.2  29.2  27.7  29.1  73.0  01:31 
 7665  01/04/2026 01:26:31  29.2  29.2  27.6  28.9  72.9  01:26 
 7664  01/04/2026 01:21:50  29.2  29.2  27.6  29.1  73.0  01:21 
 7663  01/04/2026 01:17:08  29.3  29.2  27.7  29.1  73.0  01:17 
 7662  01/04/2026 01:12:26  29.3  29.2  27.5  29.4  73.0  01:12 
 7661  01/04/2026 01:07:44  29.3  29.2  27.4  29.0  73.0  01:07 
 7660  01/04/2026 01:03:03  29.3  29.3  27.5  29.1  72.9  01:03 
 7659  01/04/2026 00:58:20  29.3  29.3  28.1  29.2  72.9  00:58 
 7658  01/04/2026 00:53:39  29.3  29.3  28.2  29.0  72.9  00:53 
 7657  01/04/2026 00:48:57  29.4  29.3  28.1  29.1  72.9  00:48 
 7656  01/04/2026 00:44:16  29.4  29.3  28.2  29.2  72.8  00:44 
 7655  01/04/2026 00:39:34  29.4  29.4  28.2  29.1  73.0  00:39 
 7654  01/04/2026 00:34:52  29.4  29.4  28.3  29.1  72.9  00:34 
 7653  01/04/2026 00:30:11  29.4  29.4  28.3  29.2  72.9  00:30 
 7652  01/04/2026 00:25:28  29.4  29.4  28.3  29.2  73.0  00:25 
 7651  01/04/2026 00:20:46  29.4  29.4  28.4  29.4  72.9  00:20 
 7650  01/04/2026 00:16:04  29.4  29.4  28.2  29.4  72.9  00:16 
 7649  01/04/2026 00:11:22  29.5  29.4  28.1  29.4  73.0  00:11 
 7648  01/04/2026 00:06:41  29.5  29.4  28.0  29.4  72.9  00:06 
 7647  01/04/2026 00:01:59  29.5  29.5  28.3  29.4  72.9  00:01 
 7646  31/03/2026 23:57:17  29.5  29.5  28.3  29.4  72.9  23:57 

Data every 5 minute.


ใช้เวลาประมวลผล 0.00268 วินาที